Simultaneous Nadir Overpasses (SNOs) Predictions

Prediction of SNOs between GOES-17 and LANDSAT-8 Satellite Orbit:

Table of predicted SNOs for the next 14.0 days since TLE Epoch: 4/25/2025
Index Date Time (GOES-17) GOES-17 Lat,Lon LANDSAT-8 Lat,Lon Distance(km) Time Diff (sec)
1 04/26/2025 17:09:25 0.01,-104.40 0.08,-104.74 38.88 80
2 04/28/2025 16:59:54 0.02,-104.40 -0.53,-101.79 296.52 80
3 04/29/2025 05:21:18 -0.02,-104.35 -0.59,-106.98 299.92 80
4 05/01/2025 05:06:27 -0.02,-104.34 0.05,-104.03 35.15 80
5 05/03/2025 04:54:15 -0.01,-104.34 0.65,-101.07 370.53 80
6 05/03/2025 17:15:30 0.02,-104.39 0.41,-106.24 210.17 80
7 05/05/2025 17:05:59 0.02,-104.39 -0.22,-103.28 126.16 80
8 05/06/2025 05:27:22 -0.02,-104.34 -0.88,-108.48 469.59 80
9 05/07/2025 16:53:47 0.02,-104.40 -0.87,-100.33 463.15 80
10 05/08/2025 05:15:09 -0.02,-104.35 -0.28,-105.51 132.52 80
